RH
31 30 45 47 47 53 58 42 37 47 69 43 39 40 32 34 31 38 35 33 52 49 81 100 100 100 89 85 94 100 100 100 83 71 96 100 100 79 46 72 98 97 94 71 50
40 46 48 45 53 63 48 43 52 62 61 52 44 44 35 30 28 32 30 28 30 37 100 100 78 100 100 100 100 100 100 100 72 75 100 100 97 85 47 58 100 86 88 85 66
50 47 42 53 62 58 53 49 73 76 63 51 56 52 35 30 27 26 26 25 26 28 42 100 82 100 99 67 100 100 100 100 100 64 55 56 66 84 97 73 93 84 88 93 74
40 47 42 41 48 50 45 70 74 53 58 54 65 38 41 31 27 24 23 23 27 40 40 46 94 99 100 89 100 100 100 85 81 59 66 66 74 92 85 98 99 81 92 91 83
57 57 54 44 48 56 58 49 46 50 64 72 39 38 40 36 27 23 24 20 24 68 55 57 63 98 100 100 63 71 89 91 85 84 91 72 61 66 72 100 100 62 63 100 100
69 61 71 52 58 69 56 53 52 55 78 54 43 45 40 38 34 28 25 28 26 30 67 62 78 95 100 99 100 97 100 99 100 100 100 60 51 39 95 100 98 40 88 100 100
63 75 72 80 68 72 67 68 61 53 53 44 52 46 44 34 32 31 26 25 20 31 29 40 84 86 87 100 95 100 100 100 100 100 99 69 26 28 73 100 100 100 100 100 100
78 64 88 84 86 73 72 72 79 62 58 59 64 45 51 44 35 36 34 27 24 44 37 35 39 64 65 83 98 97 100 100 100 100 70 77 36 33 61 82 100 100 100 100 98
78 80 90 90 94 94 81 86 81 81 87 84 89 74 62 51 41 38 40 34 22 56 95 66 78 100 95 100 100 100 100 66 58 86 68 44 47 36 49 86 100 99 99 100 100
63 88 89 97 95 95 94 99 92 73 75 100 97 92 92 77 62 44 40 40 31 85 100 99 80 100 100 100 100 100 74 67 97 80 45 61 93 99 81 80 100 100 100 99 100
40 36 61 83 98 98 94 98 100 74 81 92 100 100 100 100 78 50 46 38 41 100 100 88 100 100 63 68 100 100 100 98 97 84 74 85 64 100 92 99 100 100 93 98 100
48 39 25 50 70 85 99 100 100 85 91 100 100 100 100 97 88 82 50 43 40 47 95 100 100 100 89 97 100 100 100 100 99 88 77 77 85 73 73 77 92 100 100 100 100
74 75 40 24 37 58 68 87 97 95 80 99 100 100 100 94 85 79 66 52 48 46 50 97 100 100 100 100 100 100 100 100 100 100 72 86 82 91 100 100 100 100 100 100 100
72 74 87 42 28 30 53 64 77 74 76 81 100 99 100 100 97 97 64 65 56 53 53 55 95 100 100 100 100 100 100 89 74 80 95 77 66 53 64 87 77 68 67 69 69
85 78 97 100 54 43 35 31 45 59 51 62 68 97 100 100 100 100 85 62 59 64 50 51 48 65 96 100 100 100 100 100 77 63 70 64 58 46 47 45 42 39 42 40 42
100 99 100 100 100 47 75 34 28 37 45 61 52 61 81 100 100 99 93 87 59 70 59 53 50 47 46 86 100 100 100 99 100 79 66 54 50 40 52 55 52 55 71 83 94
100 100 98 100 100 92 78 84 68 32 34 40 49 39 45 63 91 100 92 87 91 65 70 61 64 55 52 54 76 87 97 100 100 100 84 92 91 72 75 88 60 56 59 40 40
100 100 100 100 100 100 100 83 93 84 50 55 40 40 36 36 48 72 100 97 83 69 63 65 67 62 60 58 65 67 70 75 92 100 100 100 98 92 78 70 87 74 59 44 50
100 100 100 100 100 100 100 94 100 96 100 72 66 47 50 39 35 40 42 42 37 66 67 58 60 68 70 60 68 79 81 81 74 75 76 76 71 70 74 74 60 43 42 65 79
100 100 100 100 100 100 100 99 100 100 100 55 97 78 72 59 64 39 36 32 33 31 38 52 58 66 67 72 66 58 79 95 82 70 76 63 59 60 60 59 62 72 78 76 86
88 100 100 100 100 100 100 100 100 100 100 100 96 99 94 98 82 77 62 52 50 36 30 30 28 36 40 56 69 74 63 66 72 81 71 55 48 56 61 71 90 98 100 100 99
49 64 75 99 100 100 100 100 100 100 100 100 100 100 100 99 100 100 100 65 73 62 64 55 31 28 50 65 51 56 58 63 65 57 69 70 47 47 53 77 96 91 54 56 73
37 44 47 55 66 80 100 100 100 100 100 100 100 100 100 100 100 100 100 100 100 89 91 100 95 44 32 55 89 71 63 59 89 84 67 72 74 93 92 96 100 97 97 84 79
30 33 38 38 44 52 68 65 88 100 100 100 100 100 100 100 100 100 100 100 100 100 81 67 78 99 57 42 92 100 100 100 99 100 100 98 94 98 98 100 100 100 100 98 100
20 25 28 29 34 37 39 41 52 64 80 74 95 96 100 100 100 100 100 100 100 98 86 81 67 69 84 68 71 74 100 100 100 100 93 92 80 96 100 100 91 100 100 100 92
15 15 17 20 22 26 29 36 38 41 35 40 55 72 67 81 75 100 100 100 100 100 100 100 100 95 86 68 80 94 99 87 100 100 100 89 74 93 77 62 68 67 67 82 70
13 14 15 16 18 18 21 23 27 30 32 36 36 33 41 45 46 64 64 80 89 97 100 100 100 100 99 99 74 59 72 88 98 97 100 100 100 100 100 100 84 82 98 86 89
Wind_Speed
63 62 60 61 57 56 56 53 53 52 54 54 53 52 52 53 53 57 56 54 50 47 47 45 41 42 44 47 46 46 46 52 45 43 45 40 43 41 36 37 37 37 34 34 28
56 55 54 59 56 53 55 54 53 52 55 55 54 52 51 51 52 57 58 59 55 45 50 51 49 44 46 44 48 48 51 55 49 46 42 44 49 42 39 39 40 40 37 32 28
52 53 51 51 53 53 54 54 52 54 56 55 52 50 50 52 54 56 60 60 57 52 50 57 51 51 47 47 49 47 57 55 52 45 46 45 46 45 46 44 42 42 38 35 35
53 50 51 48 51 49 49 50 53 57 53 53 48 46 54 49 50 51 57 57 50 45 46 50 57 60 55 51 48 48 56 50 50 48 46 45 42 48 47 45 44 39 40 41 36
53 47 48 51 49 50 47 49 50 51 48 45 46 47 50 51 52 48 55 58 56 47 43 44 50 50 52 56 50 50 55 52 53 51 50 48 44 45 46 43 40 42 40 43 38
55 54 53 48 48 47 48 45 46 47 45 47 47 50 49 49 48 46 53 60 57 47 48 47 47 50 53 53 52 54 56 56 56 54 55 48 45 40 40 41 45 48 37 42 35
62 58 57 51 51 47 48 46 46 49 49 46 47 46 46 52 46 43 47 54 56 45 46 46 51 55 53 55 53 55 52 59 60 60 60 56 37 36 37 38 42 43 41 39 38
69 64 62 57 52 53 52 52 49 48 47 51 50 49 52 54 46 46 45 53 53 47 45 44 46 52 52 52 52 54 53 52 60 60 55 55 41 37 35 39 39 42 40 39 38
71 71 66 61 57 58 55 55 55 52 51 46 49 48 50 52 49 48 45 49 48 48 45 42 44 48 49 54 56 56 47 46 51 53 50 49 44 38 35 38 43 46 44 39 38
74 73 71 66 63 58 58 58 61 58 50 49 50 49 50 47 51 49 49 50 50 47 45 42 41 41 48 47 52 52 47 51 52 54 44 41 37 41 35 40 41 40 39 38 37
68 71 73 71 65 64 60 61 63 63 55 52 53 52 56 52 47 49 52 50 50 51 47 47 45 47 44 41 48 51 53 53 50 51 44 40 31 28 22 23 35 37 37 37 41
75 71 67 73 68 67 67 65 64 65 60 55 54 55 57 56 46 54 51 51 47 47 51 47 46 47 43 47 55 52 47 50 51 55 49 42 34 34 30 25 29 33 37 41 42
84 80 73 70 73 72 73 71 70 67 64 61 60 57 64 57 48 55 56 55 54 51 51 52 51 47 44 47 47 47 42 44 46 53 53 48 38 34 31 31 32 34 38 38 42
88 84 83 76 76 77 76 77 76 68 65 62 70 63 64 64 54 58 58 60 59 54 58 50 55 52 46 49 51 50 56 50 47 47 43 49 40 38 39 40 35 39 41 46 47
92 89 92 92 81 82 78 78 79 71 66 67 69 69 67 66 64 63 65 59 62 64 61 51 59 59 55 54 59 58 60 53 50 45 45 44 38 33 38 36 41 41 41 45 50
96 96 94 93 93 89 89 84 80 76 68 74 76 74 72 70 69 66 65 63 62 67 67 58 61 61 59 61 63 63 64 67 62 58 50 55 54 41 49 51 51 51 51 52 53
102 104 104 99 100 97 94 96 89 78 77 83 81 75 75 77 75 74 73 73 72 67 67 68 63 63 63 62 66 66 67 69 70 67 57 64 66 47 55 60 54 56 58 59 60
114 108 105 105 105 103 101 99 93 84 82 97 90 83 79 80 81 80 78 78 79 75 70 68 71 73 74 71 72 73 75 71 73 70 70 74 67 59 63 64 66 66 69 66 67
126 119 117 115 110 109 107 107 91 90 95 98 99 98 91 83 83 85 80 79 81 79 80 76 69 73 78 80 79 80 79 79 78 75 78 72 70 64 69 70 70 70 71 73 75
130 125 125 120 118 117 116 106 101 98 103 101 105 100 101 94 92 89 87 86 89 85 84 82 75 75 83 84 83 84 86 89 89 83 83 72 74 65 70 75 75 79 81 84 85
134 133 132 133 129 127 127 112 108 106 112 110 109 108 104 104 102 98 94 95 96 93 88 86 80 72 79 90 93 96 93 96 98 97 90 82 78 74 77 81 86 85 88 90 91
128 133 140 139 139 133 129 122 119 120 120 118 116 113 111 112 111 111 105 108 105 102 103 99 92 83 82 83 96 97 100 97 100 95 101 99 80 83 84 86 90 93 93 94 97
123 127 127 138 144 140 137 132 130 127 128 124 125 123 122 122 122 118 115 113 110 111 109 104 104 97 92 93 94 103 103 101 106 103 100 108 95 97 98 97 97 99 100 106 107
116 118 122 126 131 137 144 144 142 139 138 137 133 134 132 126 130 127 122 122 120 118 118 119 115 113 108 101 105 109 110 112 115 113 108 108 106 105 104 105 108 107 109 111 112
105 110 114 117 118 122 126 128 135 142 146 146 143 142 139 138 136 134 130 128 126 126 126 127 122 121 116 112 117 118 117 118 120 120 120 117 119 110 113 115 115 115 116 120 115
96 99 103 106 110 112 115 116 120 122 127 133 142 151 150 148 144 138 138 135 129 131 132 134 134 129 127 125 127 128 124 121 123 125 127 129 129 123 125 125 124 124 125 125 121
87 90 93 94 98 101 103 108 109 112 115 118 125 126 134 143 145 146 146 143 137 135 137 141 139 138 134 131 137 137 127 126 128 129 129 131 130 128 130 130 129 127 126 128 127
Wind_Direction
271 271 269 268 266 265 262 262 267 263 263 265 266 261 263 262 261 267 272 275 268 265 256 259 264 272 271 268 267 275 272 272 275 281 282 283 292 290 285 281 282 276 274 283 294
266 263 264 265 263 262 262 261 263 262 262 264 264 261 261 262 263 262 270 272 273 269 252 257 259 262 266 271 271 274 272 269 274 276 273 278 288 287 285 282 279 279 274 282 284
262 265 264 264 260 259 262 259 256 262 264 263 263 258 259 260 261 260 266 270 275 271 259 253 258 258 262 262 268 276 273 273 273 274 275 279 279 285 279 277 274 280 272 284 285
265 264 266 261 263 257 260 260 260 263 263 263 257 258 256 259 260 259 265 271 277 271 266 257 252 257 261 264 267 272 270 275 272 279 281 279 280 280 277 274 270 275 269 283 280
269 267 263 265 256 255 259 264 262 261 258 254 254 255 258 257 259 254 266 268 273 270 265 261 257 255 259 260 264 268 273 273 276 277 278 281 282 283 274 269 270 269 274 279 274
269 268 262 263 258 254 261 259 263 260 253 251 255 254 256 258 257 258 261 267 270 269 263 260 257 257 257 261 266 270 271 270 274 274 277 280 279 278 266 270 272 269 277 276 265
270 266 266 261 257 257 258 258 260 256 251 249 252 254 259 257 259 258 262 271 268 266 265 265 258 256 255 259 262 267 267 267 269 271 276 278 277 267 265 263 268 271 283 273 259
268 269 265 263 258 260 254 260 256 256 252 248 255 256 257 256 258 262 257 264 268 272 269 262 258 257 255 259 265 268 268 267 265 271 277 281 276 271 268 262 260 272 274 260 257
265 266 266 262 261 259 257 256 258 256 256 250 254 253 256 256 253 261 262 261 263 271 266 260 261 264 260 259 258 260 259 267 270 273 272 273 275 268 271 265 262 268 275 256 264
265 263 263 262 260 261 259 260 256 256 256 252 251 251 256 262 257 258 260 267 260 261 258 260 261 263 261 259 257 259 260 264 266 268 268 274 272 276 268 263 260 265 259 259 266
254 260 258 256 257 259 260 258 252 260 259 254 249 251 252 253 257 258 257 260 254 257 257 263 259 258 261 262 260 256 259 262 259 263 260 268 266 267 265 266 258 254 266 271 270
257 255 261 254 252 256 257 256 254 256 257 255 251 248 249 252 258 259 255 255 259 261 258 257 259 259 261 257 255 259 256 255 255 255 254 264 258 258 263 258 267 276 276 279 275
256 260 256 260 256 252 256 255 256 254 252 260 254 254 250 254 250 259 256 252 255 262 260 257 257 257 257 254 251 249 247 250 252 259 255 258 251 258 262 268 268 270 271 272 275
254 255 256 257 261 257 254 254 254 252 252 255 258 253 253 256 255 251 257 254 255 257 259 255 261 253 249 249 249 255 256 255 250 255 256 255 256 265 260 259 266 270 273 280 283
252 252 253 253 259 254 259 257 249 248 251 254 252 256 254 255 256 256 259 258 253 256 256 257 258 260 255 247 252 254 257 255 253 249 251 260 244 259 259 253 257 264 279 280 283
250 252 252 252 254 255 252 257 257 251 251 254 253 254 252 256 255 254 254 257 257 253 253 251 252 258 258 256 253 252 255 255 251 249 252 258 260 256 263 260 262 266 273 278 274
254 254 254 252 253 254 253 256 253 260 257 256 255 250 249 249 252 254 254 254 256 255 253 249 253 257 259 260 260 261 258 253 255 253 252 257 258 257 264 267 267 271 272 276 280
251 254 253 254 253 251 253 253 254 252 260 257 255 253 252 249 247 252 257 258 255 255 252 254 253 256 258 257 259 264 262 260 256 258 256 256 260 264 266 268 267 268 272 274 278
252 254 254 251 253 252 250 255 252 251 253 259 256 255 255 255 252 246 246 252 256 255 254 253 252 259 258 256 257 260 264 263 262 259 257 260 262 259 266 268 271 275 275 276 278
251 249 254 253 252 253 253 253 251 252 251 253 255 253 254 257 255 256 251 251 254 254 251 250 249 253 257 259 260 261 263 265 266 263 263 258 261 266 270 271 272 275 276 278 281
248 249 250 251 249 252 255 250 248 249 250 250 252 253 254 257 255 256 255 257 257 258 257 255 249 245 253 258 259 261 261 263 264 266 267 265 266 268 269 274 278 278 278 278 279
250 249 247 248 249 252 251 251 251 251 252 254 253 251 249 252 252 256 256 258 258 259 260 263 260 252 255 259 256 257 260 262 263 265 266 268 267 269 270 273 274 276 278 278 278
251 251 250 250 248 249 252 251 251 250 251 251 251 253 251 249 253 254 257 257 256 257 258 260 262 262 261 260 260 258 262 264 264 265 266 266 269 268 269 270 272 275 276 278 279
251 252 251 252 251 249 251 250 251 250 251 251 252 252 253 253 255 254 255 255 257 257 258 258 259 259 259 260 259 261 262 263 266 268 269 270 270 268 269 270 273 274 275 276 276
254 252 251 252 251 250 250 251 252 251 251 249 252 253 252 253 254 255 253 255 257 257 258 259 260 261 259 257 258 260 262 265 267 268 269 270 270 269 271 271 271 272 274 274 274
253 253 252 251 252 252 253 252 252 252 253 251 250 250 252 254 254 254 255 255 252 256 258 260 261 259 260 260 259 259 260 265 266 268 271 272 271 272 271 272 271 271 272 274 276
251 252 252 253 253 252 253 253 251 252 253 253 254 252 253 255 253 256 256 256 256 255 255 257 259 259 260 260 260 261 262 261 263 266 268 269 272 274 275 276 275 274 276 277 279